Погода в Бугульме

Погода в Бугульме : погода сейчас, прогноз погоды и архив. Всё, что Вы хотите узнать о погоде в Бугульме!

Хотите узнать прогноз погоды в Бугульме? Тогда Вам сюда: Погода в Бугульме

Поиск расширенной информации на нашем сайте:

Другие новости

Новости СМИ2

Главная страница сайта

Новости сайта

03.07.2017

Напоминаем, что на нашем специализированном сайте Метеоцентр.Азия вы можете получить высокодетализированные автоматические прогнозы погоды по пунктам России, СНГ и мира в авиационном формате (включающие направление и скорость ветра, видимость, явления погоды, количество и форму облачности, нижнюю и верхнюю границу облачности).


Погода в Бугульме - сегодня

Время (UTC), дата Ветер
(°,м/с) 
Видим.   Явления Облачность Т
(°С)
Тd
(°С)
f(%) Тe
(°С)
Pmin
(гПа)
dP
(гПа)
Po
(мм)
O2
(г/м3)
Тmin Tmax R s Состояние
почвы
15 13.01.18 270 (З) 10 км    ясно 
-20.1 -22.7 80 -24  1039  -0.5  748  327    -18.5       
18 13.01.18 250 (З) 10 км    ясно 
-21.9 -24.5 79 -25  1038.7  -0.6  748  329           
21 13.01.18 240 (ЮЗ) 10 км    ясно 
-18.6 -20.7 83 -24  1037.1  -1  747  325           
00 14.01.18 240 (ЮЗ) 10 км  слаб. снег  10/10 240 м 
[Sc]
-19.7 -22 82 -24  1036.3  -1  746  326           
03 14.01.18 230 (ЮЗ) 10 км  слаб. снег  10/10 180 м 
[Sc]
-18.1 -20.3 83 -22  1035  -1  745  323  -22.1    0.0  равномерный
сухой снег
100% 
06 14.01.18 230 (ЮЗ) 4000 м  слаб. снег  10/10 270 м 
[Frnb|Ns]
-17.2 -19.3 84 -21  1034.8  745  322           
09 14.01.18 230 (ЮЗ) 10 км  слаб. ливневой снег  10/8 300 м кучево-дожд., средняя 
[Cb calv|Ac und]
-15.2 -17 86 -15  1034.6  0.1  745  319           
12 14.01.18 250 (З) 20000 м  {ливн. осадки, снег}  6/4 300 м средняя, верхняя 
[Sc|Ac trans|Ci fib]
-15.6 -17.5 85 -19  1035  0.4  746  320           
15 14.01.18 280 (З) 10 км    10/8 800 м средняя 
[Sc|Ac und]
-14.4 -16.2 86 -17  1035.9  1.1  746  319    -14.2  0.4     
18 14.01.18 280 (З) 10 км    10/8 300 м средняя 
[Sc|Ac und]
-13.4 -15.1 87 -13  1036.6  0.8  747  318           
21 14.01.18 320 (СЗ) 10 км    10/10 450 м 
[Sc]
-12.8 -14.5 87 -13  1037.2  0.7  748  317           
00 15.01.18 290 (З) 10 км  слаб. снег  10/10 240 м 
[Frnb]
-12.6 -14.3 87 -13  1038  0.8  748  317           
03 15.01.18 280 (З) 2000 м  дымка{снег}  10/10 100 м 
[St]
-12.4 -14 88 -14  1038.2  0.2  748  317  -14.4    0.0  равномерный
сухой снег
100% 
06 15.01.18 270 (З) 2000 м  слаб. снег  10/10 120 м 
[St]
-11.9 -13.5 88 -14  1038.6  0.4  749  317           
09 15.01.18 290 (З) 20000 м  {снег}  10/3 200 м верхняя 
[St|Ci fib]
-11.4 -13 88 -13  1038.5  0.1  749  316           
12 15.01.18 270 (З) 20000 м  в посл. час снег  10/6 210 м верхняя 
[St|Ci fib]
-12 -13.6 88 -16  1038.1  -0.4  748  317           
15 15.01.18 280 (З) 10 км    10/10 120 м 
[St]
-12 -13.5 89 -17  1037  -1.1  748  316    -11.1  0.0     
18 15.01.18 290 (З) 1000 м  дымка{туман}  10/10 60 м 
[St]
-10.9 -12.3 89 -15  1036.4  -0.3  747  315           
21 15.01.18 290 (З) 0500 м  туман  ?/? 60 
-9.4 -10.6 91 -13  1035.5  -0.7  747  313           
00 16.01.18 290 (З) 0500 м  переохл. туман [диам. изморози 3 мм]  ?/? 60 
-8.3 -9.4 92 -11  1034.5  -0.8  746  311           
03 16.01.18 300 (СЗ) 0500 м  переохл. туман [диам. изморози 9 мм]  10/10 60 м 
-8.2 -9.3 92 -11  1033.4  -1  745  311  -12      равномерный
сухой снег
100% 
06 16.01.18 300 (СЗ) 0200 м  переохл. туман [диам. изморози 12 мм]  ?/? 60 
-8.9 -10 92 -11  1033.2  -0.4  745  311           
09 16.01.18 300 (СЗ) 0500 м  переохл. туман [диам. изморози 13 мм]  ?/? 60 
-8.7 -9.9 91 -8  1032.5  -0.6  745  311           
12 16.01.18 310 (СЗ) 0500 м  переохл. туман [диам. изморози 15 мм]  ?/? 60 
-9.6 -10.8 91 -9  1031.7  -0.8  744  312           
15 16.01.18 010 (С) 2000 м  дымка{туман}  10/10 100 м 
[St]
-10.1 -11.3 91 -10  1030.7  -1  743  312    -8.2       
Время (UTC), дата Ветер
(°,м/с) 
Видим.   Явления Облачность Т
(°С)
Тd
(°С)
f(%) Тe
(°С)
Pmin
(гПа)
dP
(гПа)
Po
(мм)
O2
(г/м3)
Тmin Tmax R s Состояние
почвы

Для получения пояснительной информации подведите курсор к названию столбца.

ПОГОДА в Бугульме - архив

Всё, что Вы хотите узнать о погоде в Бугульме - удобно и подробно!

Выберите нужную дату (начиная с 1 января 2015* года) и нажмите кнопку "Найти".
Будут отображены архивные сводки погоды по пункту Бугульма, начиная с указанной даты.


Отображать данные в формате CSV (для использования в таблицах Excel)


Внимание! Наш архив погоды предназначен исключительно для личного некоммерческого использования в познавательных целях. Если Вам необходимы официальные справки о состоянии погоды (для производственных, юридических, коммерческих и т.п. целей), обращайтесь в органы Росгидромета.

*Примечание: данная дата относится к архиву по метеостанциям СССР (Россия, СНГ, Балтия).
Архив по метеостанциям Зарубежной Европы и Азии (кроме Китая) хранится 10 дней, по другим регионам земного шара (Китай, Африка, Америка, Австралия, Океания) - 1 день.

Бугульма - район местоположения метеостанции


Название, широта, долгота, высота метеостанции:
Бугульма 54.6°ш. 52.8°д. 304 м над ур. моря [Российская Федерация]

Дополнительная информация

В oтличие oт бoльшинства пoгoдных сайтoв мы публикуем пoдрoбную метеoинфoрмацию в детальнoм прoфессиoнальнoм фoрмате.

Характеристики температуры и влажнoсти вoздуха измеряются на высoте 2 м в тени вдали oт зданий и деревьев.
Скoрoсть ветра измеряется на высoте 10 м (на урoвне рoста челoвека скoрoсть ветра ниже в 1.5-2 раза). Если метеoстанция нахoдится в гoрoде или в лесу, тo скoрoсть ветра занижена на 2-4 м/с пo сравнению с oткрытым местoм. Скoрoсть ветра над акватoриями крупных рек и oзёр, а также на вершинах хoлмoв на 2-5 м/с выше, чем в oбычных услoвиях.
Атмoсфернoе давление в разных тoчках местнoсти мoжет значительнo oтличаться oт давления на метеoстанции, в зависимoсти oт услoвий рельефа (при пoдъёме на 10 м давление пoнижается примернo на 1 мм рт.ст.).